JBU1039 KBOS-KAUS

Flight info

Callsign JBU1039
Flight time N/A
Altitude 34000
Route BLZZR6 BLZZR BAF Q406 BWZ J6 HVQ/N0449F360 Q68 LITTR TXK BROBB WINDU SEWZY6
Aircraft A320/M-SDE3FGHIRWY/LB1

Departure

Time 2026-05-04 22:13
Airport Boston Logan International Airport (KBOS)

Arrival

Time N/A
Airport Austin Bergstrom International Airport (KAUS)
Time Latitude Longitude Altitude Speed Heading
2026-05-04 21:43 42.36477 -71.01513 29 ft 0 kts 17°
2026-05-04 22:02 42.36466 -71.01517 29 ft 2 kts 20°
2026-05-04 22:03 42.36450 -71.01525 27 ft 2 kts 24°
2026-05-04 22:03 42.36436 -71.01535 30 ft 2 kts 48°
2026-05-04 22:03 42.36431 -71.01555 30 ft 2 kts 121°
2026-05-04 22:03 42.36433 -71.01560 30 ft 0 kts 123°
2026-05-04 22:08 42.36412 -71.01515 31 ft 9 kts 123°
2026-05-04 22:08 42.36380 -71.01428 25 ft 12 kts 110°
2026-05-04 22:08 42.36373 -71.01322 28 ft 12 kts 50°
2026-05-04 22:09 42.36457 -71.01274 28 ft 15 kts 19°
2026-05-04 22:09 42.36561 -71.01223 25 ft 17 kts 20°
2026-05-04 22:09 42.36681 -71.01165 25 ft 19 kts 20°
2026-05-04 22:09 42.36807 -71.01173 27 ft 20 kts 326°
2026-05-04 22:10 42.36921 -71.01184 27 ft 19 kts 36°
2026-05-04 22:10 42.37032 -71.01081 25 ft 21 kts 26°
2026-05-04 22:10 42.37171 -71.00991 26 ft 23 kts 26°
2026-05-04 22:10 42.37321 -71.00894 25 ft 25 kts 20°
2026-05-04 22:11 42.37488 -71.00814 27 ft 26 kts 19°
2026-05-04 22:11 42.37663 -71.00731 28 ft 27 kts 19°
2026-05-04 22:11 42.37798 -71.00660 27 ft 20 kts 26°
2026-05-04 22:11 42.37828 -71.00552 25 ft 12 kts 106°
2026-05-04 22:12 42.37775 -71.00487 26 ft 12 kts 183°
2026-05-04 22:12 42.37740 -71.00499 25 ft 0 kts 200°
2026-05-04 22:12 42.37736 -71.00501 27 ft 3 kts 200°
2026-05-04 22:13 42.37511 -71.00610 27 ft 68 kts 199°
2026-05-04 22:13 42.36884 -71.00913 26 ft 120 kts 199°
2026-05-04 22:13 42.35985 -71.01358 199 ft 143 kts 201°
2026-05-04 22:13 42.35055 -71.01795 775 ft 144 kts 195°
2026-05-04 22:14 42.34028 -71.01559 1243 ft 162 kts 155°
2026-05-04 22:14 42.33207 -71.00442 1651 ft 176 kts 135°
2026-05-04 22:14 42.32407 -70.99058 1778 ft 199 kts 134°
2026-05-04 22:14 42.31656 -70.97347 1931 ft 226 kts 115°
2026-05-04 22:15 42.31332 -70.95228 2311 ft 245 kts 94°
2026-05-04 22:15 42.31543 -70.92829 2592 ft 270 kts 79°
2026-05-04 22:15 42.31923 -70.90267 3107 ft 284 kts 80°
2026-05-04 22:15 42.32306 -70.87617 3843 ft 290 kts 80°
2026-05-04 22:16 42.32689 -70.84917 4632 ft 293 kts 80°
2026-05-04 22:16 42.32966 -70.82172 5402 ft 297 kts 90°
2026-05-04 22:16 42.32748 -70.79396 6143 ft 299 kts 106°
2026-05-04 22:16 42.32014 -70.76771 6832 ft 300 kts 122°
2026-05-04 22:17 42.30785 -70.74510 7494 ft 299 kts 140°
2026-05-04 22:17 42.29113 -70.72861 8154 ft 297 kts 159°
2026-05-04 22:17 42.27166 -70.72001 8786 ft 294 kts 178°
2026-05-04 22:17 42.25167 -70.72001 9405 ft 290 kts 196°
2026-05-04 22:18 42.23167 -70.72477 10017 ft 294 kts 198°
2026-05-04 22:18 42.21234 -70.73388 10455 ft 295 kts 216°
2026-05-04 22:18 42.19631 -70.75059 11023 ft 290 kts 232°
2026-05-04 22:18 42.18453 -70.77329 11217 ft 304 kts 249°
2026-05-04 22:19 42.17849 -70.80119 11349 ft 319 kts 262°
2026-05-04 22:19 42.17460 -70.83117 11733 ft 329 kts 262°
2026-05-04 22:19 42.17053 -70.86169 12307 ft 333 kts 261°
2026-05-04 22:19 42.16639 -70.89252 12895 ft 336 kts 261°
2026-05-04 22:20 42.16222 -70.92367 13481 ft 340 kts 262°
2026-05-04 22:20 42.16093 -70.95558 14001 ft 343 kts 273°
2026-05-04 22:20 42.16316 -70.98776 14535 ft 346 kts 276°
2026-05-04 22:20 42.16557 -71.02012 15073 ft 348 kts 276°
2026-05-04 22:21 42.16795 -71.05269 15595 ft 351 kts 276°
2026-05-04 22:21 42.17032 -71.08551 16134 ft 353 kts 276°
2026-05-04 22:21 42.17272 -71.11851 16690 ft 355 kts 276°
2026-05-04 22:21 42.17512 -71.15171 17253 ft 357 kts 276°
2026-05-04 22:22 42.17756 -71.18503 17810 ft 359 kts 276°
2026-05-04 22:22 42.18000 -71.21863 18340 ft 361 kts 276°